Wind_Speed
46 23 8 15 27 35 46 48 51 49 49 54 57 63 66 80 87 91 91 92 93 91 92 87 89 91 89 91 89 90 86 87 88 91 89 89 88 87 83 83 76 78 76 77 76
53 45 22 3 12 27 41 44 44 47 46 46 48 54 59 62 73 82 88 89 91 91 89 91 89 91 90 92 90 89 88 84 90 88 87 91 89 86 84 88 90 86 82 83 78
44 45 45 29 9 10 27 40 41 42 44 45 45 46 50 56 61 69 77 85 90 92 94 95 94 95 96 91 92 94 100 97 97 94 97 99 101 96 85 83 93 87 86 88 82
39 38 38 39 35 16 4 22 35 36 39 42 44 45 47 49 54 60 68 74 79 89 93 98 101 100 99 98 99 99 100 100 98 96 99 101 102 100 101 92 97 94 89 95 88
34 33 31 31 30 31 25 4 15 27 34 37 40 42 46 48 50 51 55 61 66 69 78 85 86 100 104 105 104 103 104 102 100 101 100 103 104 99 103 102 100 98 95 94 100
27 28 28 27 24 23 23 22 20 4 18 29 35 38 41 44 47 51 55 56 58 60 64 69 73 76 88 95 97 100 107 106 106 107 107 105 109 109 106 104 106 103 106 105 102
22 22 22 21 22 20 17 17 16 16 17 10 8 24 35 41 44 46 49 52 55 59 62 63 66 68 72 77 84 85 88 93 100 104 105 105 104 106 116 120 118 116 110 111 115
18 17 18 18 17 16 16 13 11 10 9 9 10 9 6 10 25 38 47 50 52 53 58 62 65 67 68 68 70 74 79 83 88 91 93 94 93 101 103 104 108 109 110 112 110
17 15 15 14 15 14 13 12 12 11 7 5 4 3 3 2 2 3 13 21 31 41 49 55 59 60 62 65 68 68 69 72 79 83 86 88 87 93 96 96 99 103 105 104 105
19 17 14 13 13 14 15 14 12 12 11 9 6 4 4 4 4 3 4 6 8 12 15 21 28 35 43 52 59 63 67 71 74 74 73 74 76 81 85 88 90 92 95 98 101
20 19 19 18 15 15 17 18 17 16 14 13 14 14 12 11 10 11 9 10 11 12 14 14 15 14 19 23 26 33 40 46 53 61 63 68 73 80 82 85 90 92 93 95 98
23 23 22 22 21 22 22 21 21 22 19 20 18 19 20 18 19 18 16 16 16 16 18 19 15 19 19 18 20 23 25 29 34 36 39 46 50 55 62 68 74 83 91 96 96
33 34 30 27 27 26 27 27 28 28 28 24 26 24 28 25 26 27 23 23 24 23 23 26 17 22 24 24 26 23 26 28 29 31 31 32 31 35 39 43 51 56 63 69 73
40 40 39 37 33 32 31 30 29 33 35 33 31 32 33 33 33 32 31 31 31 30 30 32 27 28 30 33 30 30 29 30 32 33 33 32 29 37 42 44 46 48 49 51 56
42 46 45 42 42 40 35 39 35 36 35 36 40 39 38 39 40 38 37 38 38 35 36 36 33 32 36 36 35 36 33 33 34 34 33 37 37 36 41 46 51 53 54 54 52
43 47 48 46 45 45 44 41 41 39 38 39 40 43 48 45 46 45 45 44 41 41 41 42 38 39 40 40 40 40 37 34 35 35 34 39 40 37 41 48 51 56 58 59 58
43 45 49 49 47 46 47 46 44 44 42 43 47 47 48 54 53 52 52 50 45 44 46 47 44 44 43 44 45 45 45 39 37 38 37 41 40 41 47 49 51 54 58 62 64
43 45 47 47 49 48 46 46 47 48 51 52 52 53 54 52 60 58 56 57 53 48 49 50 51 48 45 45 48 50 50 47 41 43 43 44 42 47 53 56 56 59 60 59 57
44 42 44 47 48 49 48 48 49 51 53 53 54 54 57 58 57 65 60 61 59 57 54 53 53 53 50 49 50 52 54 52 49 47 42 45 47 50 56 59 63 63 61 60 62
43 40 42 46 47 48 49 50 51 53 53 53 55 57 60 63 60 65 65 62 65 63 62 57 55 55 55 54 55 56 56 56 56 52 48 51 51 54 58 65 65 63 65 67 67
40 40 41 46 46 49 51 51 48 51 53 55 58 63 61 56 58 63 67 64 67 68 68 63 58 58 57 58 58 59 59 61 62 60 58 57 58 60 65 69 69 69 71 71 72
40 39 40 43 48 49 50 50 51 50 52 55 60 62 56 51 56 61 68 66 66 69 70 68 61 58 59 60 61 61 62 65 65 64 64 64 58 69 72 72 73 73 74 75 76
42 40 43 44 44 46 47 48 49 52 53 57 59 62 54 49 52 61 68 71 69 68 69 68 65 63 62 65 66 64 66 67 68 67 65 66 67 71 74 75 78 77 79 81 81
46 44 42 42 44 45 46 47 50 51 52 56 59 56 52 49 50 59 70 73 73 74 72 71 68 67 66 67 68 68 67 69 69 67 68 69 70 81 77 77 80 83 85 85 85
51 43 43 39 43 45 45 47 48 50 52 53 55 53 51 50 51 55 64 77 78 77 78 79 71 71 70 71 69 67 68 71 69 70 70 74 75 79 80 83 87 90 88 89 85
54 51 45 45 40 46 48 50 50 52 54 56 53 50 51 52 53 54 60 69 80 83 81 79 73 71 68 72 69 66 71 70 71 73 73 76 79 78 81 86 90 91 88 86 87
57 51 46 44 43 42 44 49 51 49 53 52 49 48 52 51 54 57 59 64 72 81 85 81 79 74 69 73 69 70 71 70 71 73 75 79 79 80 85 87 90 88 83 85 77
Wind_Direction
45 46 79 187 209 215 216 219 222 225 226 226 228 229 229 229 231 230 233 237 239 241 238 235 236 235 238 238 235 239 245 244 245 246 252 251 249 250 249 254 255 257 256 257 256
46 48 54 108 212 216 216 219 221 224 228 229 230 232 232 232 231 232 234 236 237 242 244 240 238 238 238 240 236 242 244 236 238 242 246 251 251 254 255 257 259 258 261 254 260
41 48 51 52 62 211 220 220 222 225 227 230 230 231 233 234 234 234 236 237 239 241 244 244 244 240 239 236 238 239 244 246 240 247 244 250 249 255 254 249 254 262 263 262 261
34 42 48 55 57 60 184 222 228 231 232 232 233 234 235 234 235 236 236 237 240 242 243 244 244 247 246 245 246 243 245 248 249 249 252 249 258 258 258 255 253 260 252 257 262
23 31 40 49 58 65 66 95 224 234 238 237 237 238 238 239 239 239 239 240 241 242 242 243 246 245 246 247 249 250 250 249 250 248 250 253 255 256 254 259 258 257 255 251 252
15 20 24 33 47 58 66 75 76 119 235 238 241 242 242 242 243 243 243 243 242 244 245 246 247 248 247 246 248 250 251 252 254 253 254 252 253 253 251 254 256 259 261 258 257
360 5 14 21 22 33 53 60 67 76 81 91 218 240 243 243 244 245 246 247 247 248 248 248 248 248 248 247 247 248 250 252 254 255 256 257 259 258 257 256 258 257 256 256 257
341 345 351 358 8 14 17 26 42 58 68 75 78 84 108 224 240 244 246 246 247 247 247 247 248 248 248 248 249 249 251 252 253 253 253 255 256 258 259 260 260 261 260 258 256
317 323 328 333 338 343 351 354 355 358 9 26 50 60 48 41 75 218 233 238 242 246 248 249 249 250 251 251 250 249 249 250 251 252 255 255 255 258 258 260 260 259 258 259 258
295 301 300 303 309 313 317 319 323 323 324 318 310 297 285 281 291 264 268 262 257 251 251 251 251 252 253 252 252 253 253 254 256 256 258 259 258 257 260 259 259 260 260 260 259
282 285 287 291 285 286 291 295 299 300 298 291 292 289 267 264 259 265 261 253 262 262 263 258 259 259 256 260 257 258 259 260 261 262 263 262 262 261 262 263 261 260 259 260 259
275 270 272 273 280 289 287 283 283 282 280 277 275 275 273 265 261 251 254 260 254 254 259 259 253 258 255 256 258 256 255 263 266 263 260 260 263 263 262 262 262 263 263 262 261
277 280 272 269 272 276 280 279 276 271 270 265 270 263 268 267 260 258 249 251 255 254 257 258 255 244 258 260 257 256 257 261 262 268 266 266 267 263 267 267 266 265 265 265 265
275 271 269 269 265 273 280 275 271 270 271 267 262 265 264 262 262 260 256 254 249 250 254 252 249 251 256 258 261 262 259 260 262 267 271 269 260 269 271 276 275 274 275 275 271
279 275 271 270 269 266 267 267 266 270 272 274 269 261 261 262 262 260 258 256 255 254 253 254 253 250 252 256 258 257 261 261 264 267 270 275 273 270 282 279 278 279 281 281 284
277 276 273 271 271 266 263 261 260 265 269 269 272 268 261 258 262 262 258 254 252 252 253 254 257 258 258 259 259 261 261 260 264 268 270 267 273 277 275 277 281 283 285 284 283
270 271 273 271 269 270 264 260 261 263 266 268 269 271 269 263 255 258 261 257 250 251 253 255 256 256 258 261 264 265 264 266 267 270 270 270 274 276 274 276 278 282 282 286 291
278 265 268 270 271 269 269 265 264 265 266 268 270 271 269 270 258 253 256 257 257 253 254 254 256 256 259 260 263 265 267 269 269 270 274 277 278 276 275 278 278 276 279 283 286
284 265 264 266 267 266 267 267 266 266 269 271 269 267 266 272 263 250 249 255 255 257 256 256 257 258 259 263 264 264 267 270 271 272 275 276 275 276 279 280 279 282 284 286 285
284 267 265 265 268 266 266 266 267 267 269 271 270 271 271 273 263 247 245 250 254 255 254 252 254 259 261 265 266 268 271 274 277 279 283 281 281 279 277 278 281 286 288 288 289
283 272 269 268 267 266 268 267 267 269 269 268 272 277 281 267 256 245 242 244 251 255 255 252 252 256 260 263 267 271 275 277 278 282 283 284 283 283 281 284 288 289 289 291 292
281 275 274 275 267 266 266 269 268 267 269 275 279 282 282 262 254 246 240 243 247 253 255 256 257 258 261 263 267 270 273 275 277 280 282 283 286 284 286 287 289 290 291 292 290
290 279 275 277 271 269 268 267 270 273 275 278 282 286 279 265 253 245 241 242 244 249 253 254 255 256 259 263 265 269 272 275 279 280 283 284 287 288 287 291 293 296 296 296 297
306 281 280 278 273 273 271 271 268 273 277 282 285 282 274 267 257 247 240 240 243 247 250 252 253 253 254 258 261 267 271 274 278 280 281 287 290 290 293 296 298 299 299 301 300
310 294 276 280 275 273 275 272 272 276 276 278 280 276 271 266 261 251 245 240 242 245 250 253 253 256 257 259 264 268 271 275 279 281 285 287 292 293 296 300 302 302 304 303 301
306 308 283 273 279 272 271 274 273 274 277 280 276 272 270 269 265 259 251 247 242 244 247 252 254 257 259 262 265 269 272 277 279 282 287 290 293 296 299 301 301 303 303 304 304
305 308 304 279 275 281 276 273 273 274 275 276 272 270 270 268 264 262 258 252 248 245 246 248 250 254 258 261 266 270 274 276 280 283 288 291 294 297 300 301 302 303 305 305 302
Height
10668 10667 10669 10673 10679 10685 10692 10699 10708 10716 10722 10729 10736 10744 10752 10759 10768 10777 10784 10790 10796 10802 10808 10814 10820 10827 10832 10838 10843 10848 10856 10857 10857 10857 10854 10862 10873 10879 10888 10891 10893 10893 10900 10899 10903
10682 10678 10677 10679 10682 10686 10692 10699 10705 10712 10718 10724 10731 10738 10745 10751 10758 10765 10771 10777 10783 10788 10794 10801 10808 10814 10818 10823 10831 10835 10839 10839 10842 10848 10849 10849 10859 10859 10871 10875 10875 10878 10883 10884 10886
10696 10690 10686 10683 10683 10686 10692 10698 10703 10708 10714 10721 10727 10732 10737 10743 10748 10753 10759 10765 10771 10777 10781 10785 10791 10798 10803 10807 10814 10820 10820 10828 10828 10832 10838 10833 10839 10845 10858 10861 10852 10863 10869 10869 10872
10707 10702 10697 10692 10689 10688 10691 10696 10702 10706 10710 10715 10720 10725 10730 10734 10739 10744 10748 10754 10760 10765 10769 10772 10776 10780 10786 10792 10799 10804 10806 10813 10812 10817 10823 10824 10824 10831 10837 10844 10840 10849 10857 10859 10858
10713 10710 10706 10702 10698 10695 10694 10695 10698 10702 10706 10710 10713 10717 10721 10726 10731 10735 10738 10743 10748 10752 10756 10759 10762 10766 10770 10775 10781 10785 10790 10795 10799 10802 10803 10810 10803 10810 10819 10822 10820 10826 10834 10843 10845
10716 10713 10711 10709 10705 10703 10701 10700 10699 10699 10701 10704 10707 10710 10713 10717 10719 10723 10726 10731 10735 10738 10742 10745 10747 10750 10753 10758 10765 10770 10773 10779 10779 10781 10785 10792 10790 10795 10793 10800 10797 10805 10810 10817 10828
10717 10715 10713 10711 10709 10708 10705 10704 10704 10703 10702 10702 10702 10704 10706 10708 10710 10713 10716 10720 10722 10725 10729 10730 10732 10735 10738 10743 10747 10753 10755 10758 10758 10764 10768 10773 10776 10772 10768 10780 10783 10781 10788 10790 10794
10716 10714 10712 10711 10709 10708 10708 10706 10705 10704 10703 10703 10702 10702 10702 10702 10703 10704 10707 10709 10712 10714 10715 10716 10719 10721 10725 10729 10731 10736 10741 10742 10740 10741 10745 10751 10753 10750 10751 10753 10758 10755 10757 10764 10767
10713 10712 10711 10709 10708 10706 10706 10705 10705 10704 10703 10702 10701 10701 10701 10701 10700 10700 10700 10701 10702 10703 10704 10705 10706 10708 10711 10715 10717 10721 10721 10721 10720 10726 10728 10735 10741 10725 10730 10733 10732 10735 10735 10736 10740
10709 10708 10707 10706 10705 10704 10704 10703 10702 10701 10701 10701 10701 10700 10699 10699 10698 10698 10697 10697 10696 10696 10696 10695 10695 10696 10698 10698 10702 10703 10705 10706 10704 10710 10717 10716 10717 10716 10708 10716 10716 10713 10713 10712 10715
10703 10702 10701 10701 10700 10699 10698 10698 10699 10698 10697 10697 10697 10697 10697 10696 10695 10694 10694 10694 10693 10692 10691 10691 10690 10690 10688 10690 10691 10691 10691 10691 10691 10696 10700 10697 10697 10696 10696 10694 10690 10688 10689 10691 10693
10697 10695 10694 10694 10693 10694 10692 10691 10691 10691 10693 10692 10693 10692 10691 10691 10690 10690 10689 10688 10688 10688 10687 10686 10686 10685 10685 10685 10685 10685 10684 10685 10683 10685 10686 10682 10684 10680 10679 10677 10674 10670 10667 10671 10675
10689 10687 10686 10685 10685 10684 10684 10684 10683 10683 10683 10685 10684 10685 10683 10684 10684 10683 10684 10683 10682 10681 10681 10679 10682 10680 10679 10679 10679 10680 10679 10678 10677 10678 10678 10676 10675 10668 10664 10663 10660 10656 10654 10654 10655
10678 10676 10675 10674 10675 10674 10674 10673 10673 10672 10673 10674 10675 10674 10674 10674 10675 10674 10675 10675 10674 10674 10673 10670 10674 10674 10673 10670 10672 10672 10672 10671 10670 10669 10667 10667 10668 10658 10653 10652 10647 10642 10640 10641 10640
10666 10662 10662 10663 10663 10663 10665 10663 10663 10662 10662 10663 10662 10662 10662 10663 10663 10664 10664 10664 10664 10664 10663 10663 10664 10666 10664 10663 10664 10663 10663 10662 10661 10660 10659 10654 10653 10652 10643 10636 10630 10628 10627 10627 10628
10651 10648 10646 10648 10650 10649 10650 10650 10651 10651 10651 10650 10647 10648 10648 10649 10650 10650 10651 10650 10652 10654 10653 10650 10654 10653 10652 10652 10653 10652 10652 10653 10651 10650 10650 10643 10642 10640 10632 10624 10620 10613 10610 10609 10611
10634 10634 10631 10632 10634 10633 10634 10634 10636 10637 10638 10635 10633 10634 10635 10636 10635 10635 10636 10637 10639 10641 10640 10639 10640 10641 10642 10642 10639 10640 10639 10640 10641 10639 10638 10633 10632 10628 10620 10614 10609 10604 10598 10592 10588
10616 10616 10616 10616 10616 10617 10618 10620 10621 10623 10620 10619 10618 10620 10618 10618 10618 10620 10621 10622 10624 10627 10626 10627 10626 10626 10627 10629 10627 10625 10624 10625 10628 10627 10624 10621 10622 10614 10606 10599 10594 10590 10587 10584 10579
10599 10598 10600 10601 10600 10601 10603 10604 10605 10604 10604 10602 10601 10603 10601 10599 10600 10601 10604 10605 10608 10609 10610 10612 10614 10612 10613 10613 10613 10613 10610 10610 10611 10613 10614 10610 10606 10601 10590 10583 10575 10574 10573 10569 10563
10585 10583 10585 10585 10584 10585 10586 10586 10589 10588 10586 10585 10581 10584 10583 10580 10578 10583 10587 10590 10590 10591 10592 10596 10600 10598 10596 10597 10596 10595 10595 10593 10591 10595 10596 10594 10591 10584 10575 10564 10561 10560 10554 10546 10543
10571 10570 10570 10570 10569 10569 10569 10569 10573 10570 10569 10566 10566 10563 10563 10557 10559 10563 10570 10573 10573 10573 10574 10579 10585 10587 10585 10582 10581 10580 10578 10575 10573 10575 10575 10577 10572 10563 10553 10547 10545 10539 10531 10526 10520
10559 10557 10557 10556 10555 10553 10554 10553 10554 10555 10552 10547 10546 10544 10542 10540 10541 10545 10550 10554 10554 10555 10559 10562 10570 10574 10573 10568 10566 10566 10565 10560 10559 10560 10558 10555 10560 10539 10531 10529 10524 10518 10511 10502 10494
10546 10543 10543 10542 10540 10539 10538 10537 10538 10536 10534 10531 10529 10524 10523 10523 10526 10527 10532 10534 10537 10537 10542 10547 10555 10557 10557 10553 10552 10553 10549 10545 10542 10541 10541 10538 10532 10522 10513 10509 10498 10493 10483 10473 10464
10534 10530 10528 10527 10525 10524 10523 10522 10524 10522 10519 10514 10511 10508 10507 10506 10508 10511 10515 10517 10519 10519 10521 10525 10535 10538 10541 10539 10538 10537 10535 10530 10528 10527 10522 10519 10516 10489 10492 10488 10476 10465 10455 10446 10434
10521 10517 10514 10513 10511 10510 10508 10506 10506 10506 10503 10500 10495 10492 10490 10490 10491 10494 10496 10499 10501 10503 10503 10506 10518 10519 10522 10521 10523 10524 10518 10513 10513 10508 10507 10497 10495 10481 10472 10462 10449 10436 10429 10415 10403
10507 10501 10498 10498 10496 10495 10493 10491 10490 10489 10484 10481 10480 10476 10473 10474 10473 10474 10477 10479 10482 10484 10487 10492 10501 10503 10506 10503 10507 10509 10499 10498 10493 10490 10487 10480 10472 10468 10456 10443 10429 10417 10405 10392 10378
10490 10488 10482 10481 10480 10479 10478 10476 10473 10473 10467 10465 10462 10460 10455 10456 10455 10454 10456 10459 10462 10464 10469 10477 10481 10486 10491 10486 10491 10490 10485 10483 10479 10473 10468 10462 10455 10447 10434 10424 10408 10394 10385 10371 10356